| time (UTC) | temp F | wind direction | speed MPH | gust MPH | rain 1hr in | rain 24hr in | rain mn in | humidity % | barometer mb |
| 20260507060546 | 41 | 0 | 0.0 | 0.0 | 0.00 | 0.00 | 0.00 | 83 | 852.9 |
| 20260507060046 | 40 | 0 | 0.0 | 0.0 | 0.00 | 0.00 | 0.00 | 83 | 853.9 |
| 20260507055546 | 40 | 0 | 0.0 | 0.0 | 0.00 | 0.00 | 0.00 | 83 | 853.0 |
| 20260507055046 | 39 | 0 | 0.0 | 0.0 | 0.00 | 0.00 | 0.00 | 83 | 854.9 |
| 20260507054546 | 39 | 0 | 0.0 | 0.0 | 0.00 | 0.00 | 0.00 | 82 | 852.3 |
| 20260507054047 | 39 | 0 | 0.0 | 0.0 | 0.00 | 0.00 | 0.00 | 83 | 853.4 |
| 20260507053546 | 37 | 0 | 0.0 | 0.0 | 0.00 | 0.00 | 0.00 | 84 | 853.9 |
| 20260507053046 | 36 | 0 | 0.0 | 0.0 | 0.00 | 0.00 | 0.00 | 84 | 851.5 |
| 20260507052546 | 35 | 0 | 0.0 | 0.0 | 0.00 | 0.00 | 0.00 | 83 | 853.4 |
| 20260507052046 | 35 | 0 | 0.0 | 0.0 | 0.00 | 0.00 | 0.00 | 83 | 853.5 |
| 20260507051546 | 35 | 0 | 0.0 | 0.0 | 0.00 | 0.00 | 0.00 | 83 | 855.5 |
| 20260507051046 | 35 | 0 | 0.0 | 0.0 | 0.00 | 0.00 | 0.00 | 83 | 851.6 |
| 20260507050546 | 36 | 0 | 0.0 | 0.0 | 0.00 | 0.00 | 0.00 | 85 | 854.3 |
| 20260507050046 | 36 | 0 | 0.0 | 0.0 | 0.00 | 0.00 | 0.00 | 85 | 853.1 |
| 20260507045546 | 36 | 0 | 0.0 | 0.0 | 0.00 | 0.00 | 0.00 | 86 | 854.8 |
| 20260507045046 | 36 | 0 | 0.0 | 0.0 | 0.00 | 0.00 | 0.00 | 86 | 851.3 |
| 20260507044546 | 36 | 0 | 0.0 | 0.0 | 0.00 | 0.00 | 0.00 | 86 | 853.8 |
| 20260507044046 | 36 | 0 | 0.0 | 0.0 | 0.00 | 0.00 | 0.00 | 86 | 852.9 |
| 20260507043546 | 35 | 0 | 0.0 | 0.0 | 0.00 | 0.00 | 0.00 | 86 | 852.5 |
| 20260507043046 | 35 | 0 | 0.0 | 0.0 | 0.00 | 0.00 | 0.00 | 86 | 855.2 |
| 20260507042546 | 34 | 0 | 0.0 | 0.0 | 0.00 | 0.00 | 0.00 | 87 | 853.8 |
| 20260507042046 | 33 | 157 | 72.0 | 72.0 | 0.00 | 0.00 | 0.00 | 88 | 855.4 |
| 20260507041546 | 33 | 315 | 0.0 | 0.0 | 0.00 | 0.00 | 0.00 | 88 | 854.2 |
| 20260507041046 | 32 | 315 | 0.0 | 0.0 | 0.00 | 0.00 | 0.00 | 88 | 855.1 |
| 20260507040547 | 32 | 315 | 0.0 | 0.0 | 0.00 | 0.00 | 0.00 | 88 | 855.6 |
| 20260507040046 | 32 | 315 | 0.0 | 0.0 | 0.00 | 0.00 | 0.00 | 89 | 853.5 |
| 20260507035546 | 32 | 315 | 0.0 | 0.0 | 0.00 | 0.00 | 0.00 | 89 | 856.1 |
| 20260507035050 | 32 | 315 | 0.0 | 0.0 | 0.00 | 0.00 | 0.00 | 89 | 852.7 |
| 20260507034546 | 32 | 315 | 0.0 | 0.0 | 0.00 | 0.00 | 0.00 | 89 | 855.1 |
| 20260507034046 | 32 | 315 | 0.0 | 0.0 | 0.00 | 0.00 | 0.00 | 89 | 854.4 |
| 20260507033546 | 32 | 315 | 0.0 | 0.0 | 0.00 | 0.00 | 0.00 | 89 | 853.6 |
| 20260507033046 | 32 | 315 | 0.0 | 0.0 | 0.00 | 0.00 | 0.00 | 89 | 852.5 |
| 20260507032546 | 32 | 315 | 0.0 | 0.0 | 0.00 | 0.00 | 0.00 | 89 | 852.5 |
| 20260507032046 | 33 | 315 | 0.0 | 0.0 | 0.00 | 0.00 | 0.00 | 89 | 852.6 |
| 20260507031546 | 33 | 315 | 0.0 | 0.0 | 0.00 | 0.00 | 0.00 | 89 | 852.4 |
| 20260507031046 | 33 | 315 | 0.0 | 0.0 | 0.00 | 0.00 | 0.00 | 89 | 852.6 |
| 20260507030546 | 33 | 315 | 0.0 | 0.0 | 0.00 | 0.00 | 0.00 | 89 | 852.4 |
| 20260507030046 | 33 | 315 | 0.0 | 0.0 | 0.00 | 0.00 | 0.00 | 89 | 852.4 |
| 20260507025546 | 33 | 315 | 0.0 | 0.0 | 0.00 | 0.00 | 0.00 | 89 | 852.4 |
| 20260507025046 | 33 | 315 | 0.0 | 0.0 | 0.00 | 0.00 | 0.00 | 90 | 852.3 |
| 20260507024546 | 33 | 315 | 0.0 | 0.0 | 0.00 | 0.00 | 0.00 | 90 | 852.1 |
| 20260507024046 | 33 | 315 | 0.0 | 2.0 | 0.00 | 0.00 | 0.00 | 90 | 852.0 |
| 20260507023649 | 33 | 315 | 0.0 | 0.0 | 0.00 | 0.00 | 0.00 | 91 | 852.1 |
| 20260507023546 | 33 | 315 | 0.0 | 0.0 | 0.00 | 0.00 | 0.00 | 91 | 852.1 |
| 20260507023046 | 33 | 315 | 0.0 | 2.0 | 0.00 | 0.00 | 0.00 | 91 | 852.1 |
| 20260507022546 | 33 | 0 | 0.0 | 0.0 | 0.00 | 0.00 | 0.00 | 91 | 851.8 |
| 20260507022046 | 33 | 292 | 0.0 | 4.0 | 0.00 | 0.00 | 0.00 | 91 | 851.8 |
| 20260507021546 | 33 | 292 | 1.0 | 4.0 | 0.00 | 0.00 | 0.00 | 91 | 851.6 |
| 20260507021046 | 33 | 292 | 0.0 | 1.0 | 0.00 | 0.00 | 0.00 | 91 | 851.8 |
| 20260507020547 | 33 | 292 | 1.0 | 2.0 | 0.00 | 0.00 | 0.00 | 91 | 851.5 |
| 20260507020046 | 33 | 292 | 2.0 | 4.0 | 0.00 | 0.00 | 0.00 | 91 | 851.1 |
| 20260507015546 | 33 | 292 | 3.0 | 4.0 | 0.00 | 0.00 | 0.00 | 92 | 850.8 |
| 20260507015046 | 33 | 292 | 2.0 | 4.0 | 0.00 | 0.00 | 0.00 | 92 | 850.2 |
| 20260507014546 | 33 | 292 | 1.0 | 9.0 | 0.00 | 0.00 | 0.00 | 92 | 850.1 |
| 20260507014046 | 33 | 292 | 9.0 | 9.0 | 0.00 | 0.00 | 0.00 | 92 | 849.4 |
| 20260507013546 | 33 | 292 | 7.0 | 8.0 | 0.00 | 0.00 | 0.00 | 91 | 849.3 |
| 20260507013046 | 33 | 315 | 2.0 | 4.0 | 0.00 | 0.00 | 0.00 | 91 | 849.9 |
| 20260507012547 | 33 | 315 | 3.0 | 7.0 | 0.00 | 0.00 | 0.00 | 91 | 849.6 |
| 20260507012046 | 33 | 337 | 5.0 | 8.0 | 0.00 | 0.00 | 0.00 | 92 | 849.5 |
| 20260507011546 | 33 | 315 | 6.0 | 6.0 | 0.00 | 0.00 | 0.00 | 92 | 849.1 |
| 20260507011046 | 33 | 315 | 6.0 | 10.0 | 0.00 | 0.00 | 0.00 | 92 | 848.5 |
| 20260507010546 | 33 | 0 | 0.0 | 7.0 | 0.00 | 0.00 | 0.00 | 93 | 848.4 |
| 20260507010046 | 33 | 315 | 6.0 | 6.0 | 0.00 | 0.00 | 0.00 | 93 | 848.0 |
| 20260507005546 | 33 | 315 | 6.0 | 7.0 | 0.00 | 0.00 | 0.00 | 93 | 848.1 |
| 20260507005046 | 33 | 315 | 6.0 | 7.0 | 0.00 | 0.00 | 0.00 | 93 | 847.8 |
| 20260507004546 | 33 | 315 | 6.0 | 6.0 | 0.00 | 0.00 | 0.00 | 93 | 847.8 |
| 20260507004046 | 33 | 315 | 6.0 | 7.0 | 0.00 | 0.00 | 0.00 | 93 | 847.6 |
| 20260507003546 | 33 | 315 | 6.0 | 7.0 | 0.00 | 0.00 | 0.00 | 93 | 847.5 |
| 20260507003046 | 34 | 315 | 6.0 | 9.0 | 0.00 | 0.00 | 0.00 | 93 | 847.5 |
| 20260507002546 | 34 | 315 | 6.0 | 10.0 | 0.00 | 0.00 | 0.00 | 93 | 847.4 |
| 20260507002046 | 34 | 292 | 8.0 | 10.0 | 0.00 | 0.00 | 0.00 | 93 | 847.4 |
| 20260507001546 | 34 | 292 | 9.0 | 10.0 | 0.00 | 0.00 | 0.00 | 93 | 847.7 |
| 20260507001046 | 34 | 315 | 7.0 | 10.0 | 0.00 | 0.00 | 0.00 | 93 | 847.8 |
| 20260507000547 | 34 | 315 | 7.0 | 11.0 | 0.00 | 0.00 | 0.00 | 93 | 847.7 |
| 20260507000046 | 33 | 292 | 11.0 | 11.0 | 0.00 | 0.00 | 0.00 | 93 | 847.8 |
| 20260506235547 | 33 | 292 | 8.0 | 10.0 | 0.00 | 0.00 | 0.00 | 93 | 847.9 |
| 20260506235046 | 33 | 315 | 6.0 | 8.0 | 0.00 | 0.00 | 0.00 | 93 | 848.0 |
| 20260506234547 | 33 | 315 | 6.0 | 8.0 | 0.00 | 0.00 | 0.00 | 93 | 848.1 |
| 20260506234046 | 34 | 315 | 6.0 | 9.0 | 0.00 | 0.00 | 0.00 | 93 | 848.0 |
| 20260506234044 | 34 | 315 | 7.0 | 8.0 | 0.00 | 0.00 | 0.00 | 93 | 848.0 |
| 20260506233546 | 34 | 315 | 8.0 | 10.0 | 0.00 | 0.00 | 0.00 | 93 | 848.0 |
| 20260506233047 | 34 | 315 | 7.0 | 8.0 | 0.00 | 0.00 | 0.00 | 93 | 848.0 |
| 20260506232547 | 34 | 315 | 6.0 | 7.0 | 0.00 | 0.00 | 0.00 | 93 | 848.0 |
| 20260506232047 | 34 | 315 | 7.0 | 8.0 | 0.00 | 0.00 | 0.00 | 93 | 848.0 |
| 20260506231547 | 34 | 315 | 6.0 | 8.0 | 0.00 | 0.00 | 0.00 | 93 | 848.1 |
| 20260506231048 | 34 | 315 | 7.0 | 7.0 | 0.00 | 0.00 | 0.00 | 93 | 848.1 |
| 20260506230547 | 34 | 315 | 7.0 | 7.0 | 0.00 | 0.00 | 0.00 | 93 | 848.1 |
| 20260506230047 | 34 | 315 | 3.0 | 8.0 | 0.00 | 0.00 | 0.00 | 93 | 848.1 |
| 20260506225547 | 34 | 315 | 2.0 | 6.0 | 0.00 | 0.00 | 0.00 | 93 | 848.2 |
| 20260506225047 | 35 | 337 | 4.0 | 5.0 | 0.00 | 0.00 | 0.00 | 93 | 848.2 |
| 20260506224547 | 35 | 315 | 6.0 | 6.0 | 0.00 | 0.00 | 0.00 | 93 | 848.3 |
| 20260506224047 | 35 | 315 | 4.0 | 6.0 | 0.00 | 0.00 | 0.00 | 93 | 848.5 |
| 20260506223547 | 35 | 315 | 6.0 | 7.0 | 0.00 | 0.00 | 0.00 | 92 | 848.5 |
| 20260506223047 | 35 | 315 | 5.0 | 6.0 | 0.00 | 0.00 | 0.00 | 92 | 848.5 |
| 20260506222546 | 35 | 315 | 4.0 | 7.0 | 0.00 | 0.00 | 0.00 | 92 | 848.4 |
| 20260506222047 | 35 | 315 | 5.0 | 56.0 | 0.00 | 0.00 | 0.00 | 92 | 848.7 |
| 20260506221547 | 35 | 315 | 0.0 | 100.0 | 0.00 | 0.00 | 0.00 | 92 | 848.8 |
| 20260506221047 | 35 | 315 | 0.0 | 51.0 | 0.00 | 0.00 | 0.00 | 92 | 849.0 |
| 20260506220547 | 35 | 315 | 0.0 | 29.0 | 0.00 | 0.00 | 0.00 | 92 | 849.0 |
| 20260506220047 | 35 | 0 | 0.0 | 3.0 | 0.00 | 0.00 | 0.00 | 92 | 849.1 |
| 20260506215630 | 35 | 315 | 3.0 | 57.0 | 0.00 | 0.00 | 0.00 | 92 | 849.0 |
| 20260506215547 | 35 | 315 | 3.0 | 57.0 | 0.00 | 0.00 | 0.00 | 92 | 849.0 |
| 20260506215214 | 35 | 0 | 57.0 | 57.0 | 0.00 | 0.00 | 0.00 | 92 | 848.9 |
| 20260506215047 | 35 | 0 | 57.0 | 57.0 | 0.00 | 0.00 | 0.00 | 92 | 848.9 |
| 20260506214547 | 34 | 315 | 1.0 | 44.0 | 0.00 | 0.00 | 0.00 | 92 | 848.8 |
| 20260506214047 | 34 | 270 | 0.0 | 0.0 | 0.00 | 0.00 | 0.00 | 92 | 848.9 |
| 20260506213547 | 34 | 0 | 0.0 | 9.0 | 0.00 | 0.00 | 0.00 | 92 | 848.8 |
| 20260506213047 | 34 | 315 | 8.0 | 15.0 | 0.00 | 0.00 | 0.00 | 92 | 848.9 |
| 20260506212548 | 34 | 337 | 0.0 | 0.0 | 0.00 | 0.00 | 0.00 | 92 | 848.8 |
| 20260506212047 | 35 | 45 | 2.0 | 100.0 | 0.00 | 0.00 | 0.00 | 92 | 848.8 |
| 20260506211548 | 35 | 45 | 0.0 | 110.0 | 0.00 | 0.00 | 0.00 | 92 | 848.9 |
| 20260506211047 | 35 | 112 | 0.0 | 10.0 | 0.00 | 0.00 | 0.00 | 92 | 849.0 |
| 20260506210547 | 35 | 337 | 10.0 | 13.0 | 0.00 | 0.00 | 0.00 | 92 | 848.7 |
| 20260506210047 | 35 | 315 | 8.0 | 9.0 | 0.00 | 0.00 | 0.00 | 92 | 848.6 |
| 20260506205547 | 35 | 292 | 0.0 | 5.0 | 0.00 | 0.00 | 0.00 | 92 | 848.5 |
| 20260506205047 | 35 | 315 | 4.0 | 10.0 | 0.00 | 0.00 | 0.00 | 92 | 848.5 |
| 20260506204547 | 35 | 315 | 4.0 | 5.0 | 0.00 | 0.00 | 0.00 | 92 | 848.6 |
| 20260506204047 | 35 | 315 | 4.0 | 10.0 | 0.00 | 0.00 | 0.00 | 92 | 848.5 |
| 20260506203547 | 35 | 315 | 5.0 | 13.0 | 0.00 | 0.00 | 0.00 | 92 | 848.5 |
| 20260506203047 | 35 | 315 | 6.0 | 12.0 | 0.00 | 0.00 | 0.00 | 92 | 848.4 |
| 20260506202547 | 35 | 292 | 2.0 | 4.0 | 0.00 | 0.00 | 0.00 | 92 | 848.3 |
| 20260506202047 | 35 | 337 | 4.0 | 8.0 | 0.00 | 0.00 | 0.00 | 92 | 848.4 |
| 20260506201548 | 35 | 315 | 8.0 | 8.0 | 0.00 | 0.00 | 0.00 | 92 | 848.4 |
| 20260506201047 | 35 | 315 | 6.0 | 6.0 | 0.00 | 0.00 | 0.00 | 92 | 848.3 |
| 20260506200548 | 35 | 337 | 9.0 | 18.0 | 0.00 | 0.00 | 0.00 | 92 | 848.4 |
| 20260506200047 | 35 | 315 | 2.0 | 9.0 | 0.00 | 0.00 | 0.00 | 92 | 848.3 |
| 20260506195548 | 35 | 315 | 13.0 | 13.0 | 0.00 | 0.00 | 0.00 | 92 | 848.2 |
| 20260506195047 | 35 | 315 | 5.0 | 12.0 | 0.00 | 0.00 | 0.00 | 92 | 848.3 |
| 20260506194547 | 35 | 315 | 7.0 | 12.0 | 0.00 | 0.00 | 0.00 | 92 | 848.3 |
| 20260506194047 | 35 | 315 | 5.0 | 12.0 | 0.00 | 0.00 | 0.00 | 92 | 848.4 |
| 20260506193549 | 36 | 315 | 4.0 | 15.0 | 0.00 | 0.00 | 0.00 | 92 | 848.6 |
| 20260506193047 | 36 | 315 | 4.0 | 7.0 | 0.00 | 0.00 | 0.00 | 92 | 848.8 |
| 20260506192548 | 36 | 315 | 6.0 | 8.0 | 0.00 | 0.00 | 0.00 | 92 | 849.0 |
| 20260506192048 | 36 | 292 | 8.0 | 8.0 | 0.00 | 0.00 | 0.00 | 93 | 848.8 |
| 20260506191547 | 36 | 292 | 6.0 | 7.0 | 0.00 | 0.00 | 0.00 | 92 | 848.8 |
| 20260506191047 | 36 | 292 | 6.0 | 10.0 | 0.00 | 0.00 | 0.00 | 92 | 848.9 |
| 20260506190549 | 36 | 315 | 8.0 | 10.0 | 0.00 | 0.00 | 0.00 | 92 | 848.8 |
| 20260506190047 | 35 | 0 | 0.0 | 0.0 | 0.00 | 0.00 | 0.00 | 92 | 851.6 |
| 20260506185627 | 35 | 0 | 0.0 | 0.0 | 0.00 | 0.00 | 0.00 | 91 | 853.0 |
| 20260506185547 | 35 | 0 | 0.0 | 0.0 | 0.00 | 0.00 | 0.00 | 91 | 853.0 |
| 20260506185048 | 36 | 0 | 0.0 | 0.0 | 0.00 | 0.00 | 0.00 | 91 | 851.9 |
| 20260506184547 | 36 | 315 | 0.0 | 0.0 | 0.00 | 0.00 | 0.00 | 91 | 853.3 |
| 20260506184047 | 36 | 315 | 0.0 | 0.0 | 0.00 | 0.00 | 0.00 | 91 | 851.6 |
| 20260506183548 | 36 | 315 | 0.0 | 0.0 | 0.00 | 0.00 | 0.00 | 91 | 853.6 |
| 20260506183230 | 36 | 315 | 0.0 | 0.0 | 0.00 | 0.00 | 0.00 | 91 | 853.6 |
| 20260506183047 | 36 | 315 | 0.0 | 0.0 | 0.00 | 0.00 | 0.00 | 91 | 853.6 |
| 20260506182547 | 36 | 315 | 0.0 | 0.0 | 0.00 | 0.00 | 0.00 | 89 | 854.4 |
| 20260506182047 | 36 | 315 | 0.0 | 0.0 | 0.00 | 0.00 | 0.00 | 89 | 854.2 |
| 20260506181548 | 36 | 315 | 0.0 | 0.0 | 0.00 | 0.00 | 0.00 | 89 | 854.6 |
| 20260506181047 | 37 | 315 | 0.0 | 0.0 | 0.00 | 0.00 | 0.00 | 89 | 852.3 |
| 20260506180704 | 37 | 315 | 0.0 | 0.0 | 0.00 | 0.00 | 0.00 | 88 | 854.6 |
| 20260506180547 | 37 | 315 | 0.0 | 0.0 | 0.00 | 0.00 | 0.00 | 88 | 854.6 |
| 20260506180047 | 38 | 315 | 0.0 | 0.0 | 0.00 | 0.00 | 0.00 | 88 | 856.1 |
| 20260506175547 | 38 | 315 | 0.0 | 0.0 | 0.00 | 0.00 | 0.00 | 88 | 854.1 |
| 20260506175048 | 39 | 315 | 0.0 | 0.0 | 0.00 | 0.00 | 0.00 | 88 | 853.9 |
| 20260506174548 | 40 | 315 | 0.0 | 0.0 | 0.00 | 0.00 | 0.00 | 89 | 854.3 |
| 20260506174048 | 39 | 315 | 0.0 | 0.0 | 0.00 | 0.00 | 0.00 | 89 | 852.8 |
| 20260506173547 | 39 | 315 | 0.0 | 0.0 | 0.00 | 0.00 | 0.00 | 88 | 855.1 |
| 20260506173047 | 39 | 315 | 0.0 | 0.0 | 0.00 | 0.00 | 0.00 | 88 | 852.4 |
| 20260506172547 | 40 | 315 | 0.0 | 0.0 | 0.00 | 0.00 | 0.00 | 87 | 853.2 |
| 20260506172047 | 41 | 315 | 0.0 | 0.0 | 0.00 | 0.00 | 0.00 | 87 | 853.2 |
| 20260506171548 | 41 | 315 | 0.0 | 0.0 | 0.00 | 0.00 | 0.00 | 87 | 853.4 |
| 20260506171047 | 41 | 315 | 0.0 | 0.0 | 0.00 | 0.00 | 0.00 | 88 | 853.4 |
| 20260506170547 | 42 | 315 | 0.0 | 0.0 | 0.00 | 0.00 | 0.00 | 88 | 852.0 |
| 20260506170048 | 42 | 337 | 5.0 | 5.0 | 0.00 | 0.00 | 0.00 | 90 | 848.9 |
| 20260506165549 | 41 | 22 | 0.0 | 10.0 | 0.00 | 0.00 | 0.00 | 90 | 850.0 |
| 20260506165048 | 41 | 337 | 7.0 | 11.0 | 0.00 | 0.00 | 0.00 | 91 | 850.6 |
| 20260506164547 | 41 | 315 | 4.0 | 10.0 | 0.00 | 0.00 | 0.00 | 91 | 850.9 |
| 20260506164047 | 41 | 315 | 3.0 | 16.0 | 0.00 | 0.00 | 0.00 | 90 | 851.0 |
| 20260506163548 | 40 | 315 | 0.0 | 4.0 | 0.00 | 0.00 | 0.00 | 91 | 850.7 |
| 20260506163047 | 41 | 315 | 2.0 | 7.0 | 0.00 | 0.00 | 0.00 | 91 | 850.5 |
| 20260506162548 | 41 | 315 | 7.0 | 12.0 | 0.00 | 0.00 | 0.00 | 92 | 850.3 |
| 20260506162513 | 42 | 292 | 6.0 | 9.0 | 0.00 | 0.00 | 0.00 | 92 | 849.9 |
| 20260506162047 | 42 | 292 | 6.0 | 9.0 | 0.00 | 0.00 | 0.00 | 92 | 849.9 |
| 20260506161548 | 41 | 315 | 6.0 | 7.0 | 0.00 | 0.00 | 0.00 | 93 | 849.8 |
| 20260506161047 | 41 | 67 | 6.0 | 8.0 | 0.00 | 0.00 | 0.00 | 93 | 849.7 |
| 20260506160547 | 41 | 337 | 3.0 | 8.0 | 0.00 | 0.00 | 0.00 | 93 | 849.7 |
| 20260506160047 | 41 | 0 | 6.0 | 11.0 | 0.00 | 0.00 | 0.00 | 93 | 849.7 |
| 20260506155548 | 41 | 337 | 6.0 | 8.0 | 0.00 | 0.00 | 0.00 | 93 | 849.4 |
| 20260506155048 | 41 | 22 | 1.0 | 11.0 | 0.00 | 0.00 | 0.00 | 93 | 849.6 |
| 20260506154548 | 40 | 0 | 11.0 | 11.0 | 0.00 | 0.00 | 0.00 | 93 | 849.0 |
| 20260506154048 | 40 | 337 | 2.0 | 10.0 | 0.00 | 0.00 | 0.00 | 93 | 849.1 |
| 20260506153549 | 40 | 0 | 4.0 | 8.0 | 0.00 | 0.00 | 0.00 | 93 | 849.3 |
| 20260506153048 | 40 | 112 | 1.0 | 3.0 | 0.00 | 0.00 | 0.00 | 93 | 849.1 |
| 20260506152548 | 40 | 135 | 1.0 | 8.0 | 0.00 | 0.00 | 0.00 | 93 | 848.9 |
| 20260506152048 | 40 | 67 | 0.0 | 7.0 | 0.00 | 0.00 | 0.00 | 93 | 848.6 |
| 20260506151548 | 40 | 135 | 1.0 | 10.0 | 0.00 | 0.00 | 0.00 | 93 | 848.5 |
| 20260506151048 | 40 | 67 | 0.0 | 7.0 | 0.00 | 0.00 | 0.00 | 93 | 848.3 |
| 20260506150548 | 40 | 112 | 0.0 | 7.0 | 0.00 | 0.00 | 0.00 | 93 | 848.1 |
| 20260506150048 | 40 | 22 | 3.0 | 9.0 | 0.00 | 0.00 | 0.00 | 93 | 847.8 |
| 20260506145548 | 40 | 337 | 9.0 | 9.0 | 0.00 | 0.00 | 0.00 | 94 | 847.6 |
| 20260506145048 | 39 | 157 | 0.0 | 7.0 | 0.00 | 0.00 | 0.00 | 94 | 847.6 |
| 20260506144548 | 38 | 112 | 3.0 | 7.0 | 0.00 | 0.00 | 0.00 | 93 | 847.3 |
| 20260506144048 | 37 | 112 | 4.0 | 8.0 | 0.00 | 0.00 | 0.00 | 93 | 847.3 |
| 20260506143548 | 36 | 90 | 2.0 | 8.0 | 0.00 | 0.00 | 0.00 | 93 | 847.2 |
| 20260506143048 | 36 | 112 | 8.0 | 8.0 | 0.00 | 0.00 | 0.00 | 93 | 847.3 |
| 20260506142549 | 35 | 112 | 6.0 | 12.0 | 0.00 | 0.00 | 0.00 | 93 | 847.6 |
| 20260506142049 | 35 | 112 | 2.0 | 20.0 | 0.00 | 0.00 | 0.00 | 93 | 848.1 |
| 20260506141548 | 35 | 0 | 14.0 | 14.0 | 0.00 | 0.00 | 0.00 | 93 | 847.6 |
| 20260506141048 | 35 | 135 | 5.0 | 15.0 | 0.00 | 0.00 | 0.00 | 93 | 847.8 |
| 20260506140548 | 35 | 112 | 12.0 | 17.0 | 0.00 | 0.00 | 0.00 | 93 | 847.9 |
| 20260506140048 | 35 | 135 | 5.0 | 6.0 | 0.00 | 0.00 | 0.00 | 93 | 849.2 |
| 20260506135548 | 35 | 112 | 4.0 | 7.0 | 0.00 | 0.00 | 0.00 | 93 | 849.4 |
| 20260506135048 | 35 | 135 | 4.0 | 7.0 | 0.00 | 0.00 | 0.00 | 93 | 849.3 |
| 20260506134548 | 34 | 135 | 4.0 | 8.0 | 0.00 | 0.00 | 0.00 | 93 | 850.2 |
| 20260506134048 | 34 | 112 | 8.0 | 9.0 | 0.00 | 0.00 | 0.00 | 93 | 852.5 |
| 20260506133548 | 34 | 135 | 6.0 | 11.0 | 0.00 | 0.00 | 0.00 | 93 | 851.2 |
| 20260506133048 | 34 | 112 | 4.0 | 9.0 | 0.00 | 0.00 | 0.00 | 93 | 853.0 |
| 20260506132548 | 34 | 135 | 4.0 | 9.0 | 0.00 | 0.00 | 0.00 | 93 | 853.4 |
| 20260506132049 | 34 | 112 | 8.0 | 18.0 | 0.00 | 0.00 | 0.00 | 93 | 853.0 |
| 20260506131548 | 34 | 112 | 4.0 | 6.0 | 0.00 | 0.00 | 0.00 | 93 | 848.3 |
| 20260506131048 | 34 | 112 | 2.0 | 4.0 | 0.00 | 0.00 | 0.00 | 92 | 848.6 |
| 20260506130548 | 35 | 112 | 4.0 | 8.0 | 0.00 | 0.00 | 0.00 | 92 | 848.1 |
| 20260506130048 | 36 | 135 | 5.0 | 12.0 | 0.00 | 0.00 | 0.00 | 92 | 849.2 |
| 20260506125548 | 38 | 112 | 0.0 | 7.0 | 0.00 | 0.00 | 0.00 | 93 | 850.2 |
| 20260506125048 | 38 | 112 | 0.0 | 2.0 | 0.00 | 0.00 | 0.00 | 93 | 848.0 |
| 20260506124549 | 38 | 45 | 0.0 | 20.0 | 0.00 | 0.00 | 0.00 | 93 | 847.9 |
| 20260506124049 | 38 | 292 | 20.0 | 29.0 | 0.00 | 0.00 | 0.00 | 93 | 847.4 |
| 20260506123548 | 38 | 270 | 0.0 | 14.0 | 0.00 | 0.00 | 0.00 | 93 | 848.2 |
| 20260506123048 | 38 | 315 | 11.0 | 12.0 | 0.00 | 0.00 | 0.00 | 93 | 849.4 |
| 20260506122548 | 38 | 315 | 10.0 | 13.0 | 0.00 | 0.00 | 0.00 | 93 | 849.6 |
| 20260506122048 | 38 | 315 | 13.0 | 13.0 | 0.00 | 0.00 | 0.00 | 93 | 849.0 |
| 20260506121548 | 38 | 315 | 0.0 | 8.0 | 0.00 | 0.00 | 0.00 | 93 | 847.6 |
| 20260506121048 | 39 | 315 | 8.0 | 13.0 | 0.00 | 0.00 | 0.00 | 93 | 847.6 |
| 20260506120548 | 39 | 315 | 13.0 | 13.0 | 0.00 | 0.00 | 0.00 | 93 | 848.1 |
| 20260506120048 | 39 | 0 | 0.0 | 8.0 | 0.00 | 0.00 | 0.00 | 93 | 847.7 |
| 20260506115548 | 39 | 292 | 4.0 | 12.0 | 0.00 | 0.00 | 0.00 | 93 | 847.1 |
| 20260506115048 | 39 | 315 | 9.0 | 57.0 | 0.00 | 0.00 | 0.00 | 93 | 847.4 |
| 20260506114548 | 40 | 270 | 0.0 | 10.0 | 0.00 | 0.00 | 0.00 | 93 | 847.2 |
| 20260506114048 | 40 | 292 | 8.0 | 12.0 | 0.00 | 0.00 | 0.00 | 93 | 847.2 |
| 20260506113549 | 41 | 337 | 9.0 | 10.0 | 0.00 | 0.00 | 0.00 | 93 | 847.1 |
| 20260506113048 | 41 | 315 | 6.0 | 90.0 | 0.00 | 0.00 | 0.00 | 93 | 846.8 |
| 20260506112548 | 41 | 292 | 2.0 | 8.0 | 0.00 | 0.00 | 0.00 | 93 | 846.9 |
| 20260506112048 | 40 | 315 | 5.0 | 91.0 | 0.00 | 0.00 | 0.00 | 93 | 846.9 |
| 20260506111549 | 39 | 315 | 6.0 | 16.0 | 0.00 | 0.00 | 0.00 | 94 | 846.7 |
| 20260506111049 | 38 | 292 | 2.0 | 10.0 | 0.00 | 0.00 | 0.00 | 93 | 846.8 |
| 20260506110548 | 38 | 315 | 5.0 | 13.0 | 0.00 | 0.00 | 0.00 | 93 | 846.9 |
| 20260506110048 | 37 | 270 | 0.0 | 19.0 | 0.00 | 0.00 | 0.00 | 93 | 847.1 |
| 20260506105548 | 37 | 292 | 9.0 | 18.0 | 0.00 | 0.00 | 0.00 | 93 | 847.0 |
| 20260506105048 | 37 | 337 | 4.0 | 7.0 | 0.00 | 0.00 | 0.00 | 93 | 847.1 |
| 20260506104548 | 37 | 315 | 14.0 | 14.0 | 0.00 | 0.00 | 0.00 | 93 | 847.2 |
| 20260506104048 | 37 | 337 | 1.0 | 20.0 | 0.00 | 0.00 | 0.00 | 93 | 847.2 |
| 20260506103549 | 37 | 315 | 4.0 | 10.0 | 0.00 | 0.00 | 0.00 | 93 | 847.8 |
| 20260506103048 | 37 | 315 | 7.0 | 10.0 | 0.00 | 0.00 | 0.00 | 93 | 847.3 |
| 20260506102548 | 37 | 292 | 6.0 | 12.0 | 0.00 | 0.00 | 0.00 | 93 | 847.7 |
| 20260506102048 | 37 | 315 | 4.0 | 13.0 | 0.00 | 0.00 | 0.00 | 93 | 851.1 |
| 20260506101548 | 37 | 315 | 6.0 | 16.0 | 0.00 | 0.00 | 0.00 | 93 | 849.0 |
| 20260506101049 | 37 | 315 | 13.0 | 17.0 | 0.00 | 0.00 | 0.00 | 93 | 849.5 |
| 20260506100548 | 37 | 315 | 10.0 | 16.0 | 0.00 | 0.00 | 0.00 | 93 | 847.1 |
| 20260506100048 | 37 | 315 | 16.0 | 19.0 | 0.00 | 0.00 | 0.00 | 93 | 850.1 |
| 20260506095548 | 37 | 315 | 13.0 | 19.0 | 0.00 | 0.00 | 0.00 | 93 | 847.4 |
| 20260506095048 | 37 | 337 | 8.0 | 17.0 | 0.00 | 0.00 | 0.00 | 93 | 850.0 |
| 20260506094548 | 38 | 292 | 17.0 | 19.0 | 0.00 | 0.00 | 0.00 | 93 | 851.1 |
| 20260506094048 | 38 | 292 | 5.0 | 13.0 | 0.00 | 0.00 | 0.00 | 93 | 847.3 |
| 20260506093548 | 37 | 292 | 11.0 | 16.0 | 0.00 | 0.00 | 0.00 | 93 | 847.8 |
| 20260506093048 | 37 | 292 | 10.0 | 16.0 | 0.00 | 0.00 | 0.00 | 93 | 847.2 |
| 20260506092548 | 37 | 270 | 0.0 | 13.0 | 0.00 | 0.00 | 0.00 | 93 | 847.2 |
| 20260506092048 | 37 | 315 | 7.0 | 14.0 | 0.00 | 0.00 | 0.00 | 93 | 847.3 |
| 20260506091548 | 37 | 315 | 8.0 | 15.0 | 0.00 | 0.00 | 0.00 | 93 | 847.2 |
| 20260506091048 | 37 | 315 | 10.0 | 16.0 | 0.00 | 0.00 | 0.00 | 93 | 847.2 |
| 20260506090548 | 37 | 337 | 10.0 | 16.0 | 0.00 | 0.00 | 0.00 | 93 | 846.8 |
| 20260506090048 | 37 | 315 | 13.0 | 106.0 | 0.00 | 0.00 | 0.00 | 93 | 846.8 |
| 20260506085548 | 36 | 315 | 3.0 | 11.0 | 0.00 | 0.00 | 0.00 | 93 | 846.8 |
| 20260506085049 | 36 | 315 | 9.0 | 13.0 | 0.00 | 0.00 | 0.00 | 93 | 847.3 |
| 20260506084548 | 35 | 292 | 7.0 | 40.0 | 0.00 | 0.00 | 0.00 | 93 | 846.8 |
| 20260506084048 | 35 | 292 | 14.0 | 14.0 | 0.00 | 0.00 | 0.00 | 93 | 846.7 |
| 20260506083548 | 34 | 315 | 9.0 | 15.0 | 0.00 | 0.00 | 0.00 | 93 | 846.5 |
| 20260506083048 | 34 | 315 | 13.0 | 109.0 | 0.00 | 0.00 | 0.00 | 93 | 847.0 |
| 20260506082549 | 35 | 292 | 12.0 | 15.0 | 0.00 | 0.00 | 0.00 | 93 | 847.1 |
| 20260506082048 | 35 | 315 | 8.0 | 14.0 | 0.00 | 0.00 | 0.00 | 94 | 846.6 |
| 20260506081548 | 35 | 315 | 10.0 | 12.0 | 0.00 | 0.00 | 0.00 | 94 | 846.7 |
| 20260506081048 | 34 | 0 | 0.0 | 93.0 | 0.00 | 0.00 | 0.00 | 93 | 847.7 |
| 20260506080548 | 34 | 315 | 10.0 | 14.0 | 0.00 | 0.00 | 0.00 | 93 | 847.9 |
| 20260506073049 | 33 | 292 | 2.0 | 11.0 | 0.00 | 0.00 | 0.00 | 93 | 849.5 |
| 20260506072549 | 34 | 315 | 3.0 | 4.0 | 0.00 | 0.00 | 0.00 | 93 | 850.0 |
| 20260506072050 | 34 | 292 | 4.0 | 5.0 | 0.00 | 0.00 | 0.00 | 93 | 850.7 |
| 20260506071549 | 34 | 292 | 4.0 | 10.0 | 0.00 | 0.00 | 0.00 | 93 | 850.9 |
| 20260506071049 | 34 | 292 | 4.0 | 5.0 | 0.00 | 0.00 | 0.00 | 93 | 851.1 |
| 20260506070550 | 34 | 292 | 3.0 | 4.0 | 0.00 | 0.00 | 0.00 | 93 | 850.0 |
| 20260506062049 | 35 | 292 | 4.0 | 6.0 | 0.00 | 0.00 | 0.00 | 94 | 848.0 |
| 20260506061549 | 35 | 292 | 5.0 | 7.0 | 0.00 | 0.00 | 0.00 | 94 | 847.9 |
| 20260506061050 | 35 | 292 | 7.0 | 8.0 | 0.00 | 0.00 | 0.00 | 94 | 847.7 |
| 20260506060549 | 35 | 292 | 8.0 | 59.0 | 0.00 | 0.00 | 0.00 | 94 | 847.5 |